Location: Gorze? G�rny
(49.8500°N, 19.5000°E)
Time: 11:32:46
(UTC+00:00)

RESURS DK-1 - Pass Details

Date: 13 May 2021
Orbit: 553 x 564 km, 69.9° (Epoch: 22 June)

Event Time Altitude Azimuth Distance (km) Brightness Sun altitude
Rises 21:15:51 0° 333° (NNW) 2,767 7.5 -19.1°
Reaches altitude 10° 21:18:09 10° 340° (NNW) 1,867 6.3 -19.3°
Maximum altitude 21:22:08 43° 52° (NE) 804 3.2 -19.5°
Enters shadow 21:23:36 31° 101° (E) 1,013 3.4 -19.6°
